Regional Weather Roundup
Issued by NWS

Home | Current Version | Previous Version | Graphics & Text | Print | Product List | Glossary On
Versions: 1 2 3 4 5 6 7 8 9 10 11 12 13 14 15 16 17 18 19 20 21 22 23 24 25 26 27 28 29 30 31 32 33 34 35 36 37 38 39 40 41 42 43 44 45 46 47 48 49 50
000
ASUS43 KDTX 110610
RWRMI
MICHIGAN HOURLY REGIONAL WEATHER ROUNDUP
NATIONAL WEATHER SERVICE DETROIT/PONTIAC MI
100 AM EST MON DEC 11 2017

NOTE: "FAIR" INDICATES FEW OR NO CLOUDS BELOW 12,000 FEET WITH NO
SIGNIFICANT WEATHER AND/OR OBSTRUCTION TO VISIBILITY.

MIZ047>049-052>055-059>063-066>070-074>076-081>083-110700-
SOUTHEAST LOWER MICHIGAN

CITY           SKY/WX    TMP DP  RH WIND       PRES   REMARKS
ADRIAN         CLOUDY    25  19  78 NW3       30.02R
6HR MIN TEMP:  24; 6HR MAX TEMP:  28;

ALMA           CLOUDY    23  15  71 NW5       30.02S WCI  16
6HR MIN TEMP:  23; 6HR MAX TEMP:  27;

ANN ARBOR      CLOUDY    26  21  81 NW8       30.00R WCI  18
BAD AXE        CLOUDY    20  13  73 N13G20    29.99S WCI   8
6HR MIN TEMP:  20; 6HR MAX TEMP:  26;

CARO           PTCLDY    21  14  76 N6        29.99S WCI  13
DETROIT CITY   MOCLDY    27  20  75 NW8       30.00R WCI  19
6HR MIN TEMP:  27; 6HR MAX TEMP:  28; 6HR PCP: TRACE;

DETROIT        CLOUDY    28  21  75 NW12      30.01R WCI  18
6HR MIN TEMP:  28; 6HR MAX TEMP:  30;

FLINT          CLOUDY    25  20  81 N9        30.00R WCI  15
6HR MIN TEMP:  25; 6HR MAX TEMP:  25; 6HR PCP: TRACE;

GROSSE ILE     CLOUDY    28  22  77 NW14G22   30.00R WCI  17
6HR MIN TEMP:  28; 6HR MAX TEMP:  30;

HILLSDALE      CLOUDY    27  21  80 NW5       29.99S WCI  21
HOWELL         CLOUDY    24  21  89 NW8       29.99S WCI  15
6HR MIN TEMP:  24; 6HR MAX TEMP:  27;


CITY           SKY/WX    TMP DP  RH WIND       PRES   REMARKS
JACKSON        CLOUDY    26  19  74 W5        30.00R WCI  20
6HR MIN TEMP:  26; 6HR MAX TEMP:  27;

LAMBERTVILLE   CLOUDY    27  20  75 NW6       30.02R WCI  21
6HR MIN TEMP:  27; 6HR MAX TEMP:  29;

LANSING        CLOUDY    25  20  81 NW6       30.01F WCI  18
6HR MIN TEMP:  25; 6HR MAX TEMP:  26; 6HR PCP: TRACE;

LAPEER         CLOUDY    25  19  77 NW7       29.98S WCI  17
6HR MIN TEMP:  25; 6HR MAX TEMP:  26;

MASON          CLOUDY    26  19  75 NW5       30.00F WCI  21
6HR MIN TEMP:  26; 6HR MAX TEMP:  28;

MONROE         CLOUDY    28  20  71 NW9       30.01R WCI  19
6HR MIN TEMP:  28; 6HR MAX TEMP:  30;

MT. CLEMENS    CLOUDY    26  24  91 NW9       29.97R WCI  17
6HR MIN TEMP:  26; 6HR MAX TEMP:  28; 6HR PCP: TRACE;

PONTIAC        CLOUDY    25  22  88 NW9       29.97R WCI  15
6HR MIN TEMP:  25; 6HR MAX TEMP:  26; 6HR PCP: TRACE;

PORT HOPE        N/A     21  11  65 NW14G23   29.98R WCI   8
6HR MIN TEMP:  21; 6HR MAX TEMP:  28; 6HR PCP:  0.03;

PORT HURON     CLOUDY    27  21  80 NW8       29.98R WCI  18
TRI CITIES     CLEAR     20  15  81 N9        30.01S WCI   9
6HR MIN TEMP:  19; 6HR MAX TEMP:  27;

MIDLAND        FAIR      20  14  77 N3        30.00F
6HR MIN TEMP:  20; 6HR MAX TEMP:  27;

TROY           CLOUDY    28  23  80 NW7G16    30.01R WCI  21
SAGINAW HB     CLEAR     19  14  79 NW5       30.01S WCI  13
$$
MIZ043>046-050>051-056>058-064>065-071>073-077>080-110700-
SOUTHWEST LOWER MICHIGAN

CITY           SKY/WX    TMP DP  RH WIND       PRES   REMARKS
BATTLE CREEK   CLOUDY    27  21  78 W3        30.02S
6HR MIN TEMP:  27; 6HR MAX TEMP:  28;

BENTON HARBOR  CLOUDY    31  19  61 NW7       30.04S WCI  24
6HR MIN TEMP:  31; 6HR MAX TEMP:  32;

BIG RAPIDS     CLOUDY    21  13  71 N3        29.99S
6HR MIN TEMP:  21; 6HR MAX TEMP:  25;

COLDWATER      CLOUDY    27  22  82 W3        30.01S
6HR MIN TEMP:  27; 6HR MAX TEMP:  30;

FREMONT        CLOUDY    24  19  84 CALM      30.01S
6HR MIN TEMP:  23; 6HR MAX TEMP:  26;

HOLLAND        CLOUDY    28  20  71 NE7       30.03S WCI  21
6HR MIN TEMP:  28; 6HR MAX TEMP:  31;

GRAND RAPIDS   CLOUDY    26  21  81 N5        30.01F WCI  20
6HR MIN TEMP:  26; 6HR MAX TEMP:  28; 6HR PCP: TRACE;

IONIA          CLOUDY    25  19  78 NW3       30.00F
6HR MIN TEMP:  25; 6HR MAX TEMP:  27;

KALAMAZOO      CLOUDY    28  21  75 W5        30.03R WCI  23
6HR MIN TEMP:  28; 6HR MAX TEMP:  30;

LUDINGTON      CLOUDY    25  14  64 N6        30.02R WCI  18
6HR MIN TEMP:  25; 6HR MAX TEMP:  29;

MARSHALL       CLOUDY    26  21  82 CALM      30.00F
6HR MIN TEMP:  26; 6HR MAX TEMP:  27;

MOUNT PLEASANT CLEAR     19  10  66 W3        30.00F
6HR MIN TEMP:  19; 6HR MAX TEMP:  27;

MUSKEGON       CLOUDY    27  19  72 NE3       30.03S
6HR MIN TEMP:  27; 6HR MAX TEMP:  31; 6HR PCP: TRACE;

SOUTH HAVEN    CLOUDY    32  21  63 NW6       30.03S WCI  26
$$
MIZ016>042-110700-
NORTHERN LOWER MICHIGAN

CITY           SKY/WX    TMP DP  RH WIND       PRES   REMARKS
ALPENA         CLOUDY    16   8  71 W6        30.00S WCI   7
6HR MIN TEMP:  16; 6HR MAX TEMP:  22; 6HR PCP: TRACE;

BEAVER ISLAND  CLOUDY    20   8  61 NW6       30.00R WCI  12
6HR MIN TEMP:  18; 6HR MAX TEMP:  20;

BELLAIRE       CLOUDY    19  13  79 CALM      30.00S
6HR MIN TEMP:  19; 6HR MAX TEMP:  23;

CADILLAC       CLOUDY    19  11  73 CALM      29.95S
CHARLEVOIX     CLOUDY    21  12  67 NW3       30.02R
6HR MIN TEMP:  19; 6HR MAX TEMP:  21;

FRANKFORT      CLOUDY    24  13  64 CALM      30.02R
GAYLORD        CLOUDY    13   7  77 CALM      29.93F
6HR MIN TEMP:  12; 6HR MAX TEMP:  18; 6HR PCP: TRACE;

GRAYLING       CLOUDY    16   8  68 N5        29.96F WCI   9
6HR MIN TEMP:  16; 6HR MAX TEMP:  21;

HARBOR SPRINGS CLOUDY    18   7  61 NW7       29.99S WCI   9
HOUGHTON LAKE  CLOUDY    17   9  70 N3        29.97F
6HR MIN TEMP:  17; 6HR MAX TEMP:  24; 6HR PCP: TRACE;

MANISTEE       CLOUDY    23  14  68 NW3       30.02R
OSCODA         MOCLDY    12   3  66 W7        30.01S WCI   2
6HR MIN TEMP:  12; 6HR MAX TEMP:  25;

PELLSTON       CLOUDY    17   8  67 CALM      29.99F
6HR MIN TEMP:  16; 6HR MAX TEMP:  17;

ROGERS CITY    LGT SNOW  16  10  77 W5        30.00F WCI   9
TRAVERSE CITY  FLURRIES  21  15  78 W7        30.00S WCI  12
6HR MIN TEMP:  21; 6HR MAX TEMP:  26; 6HR PCP: TRACE;

$$
MIZ007>008-015-110700-
EASTERN UPPER MICHIGAN

CITY           SKY/WX    TMP DP  RH WIND       PRES   REMARKS
KINROSS        FLURRIES   7   1  76 E5        29.99S WCI  -2
6HR MIN TEMP:   6; 6HR MAX TEMP:   9;

MACKINAC ISLAN CLOUDY    17   7  63 NW10      29.99R WCI   5
6HR MIN TEMP:  16; 6HR MAX TEMP:  18;

NEWBERRY       CLOUDY    14  12  93 CALM      29.98R
6HR MIN TEMP:  13; 6HR MAX TEMP:  14;

S. S. MARIE    MIX PCPN   9  -1  64 E3        29.99F
6HR MIN TEMP:   7; 6HR MAX TEMP:  11; 6HR PCP: TRACE;

MUNISING         N/A     16  10  77 W7        30.00R WCI   6
6HR MIN TEMP:  15; 6HR MAX TEMP:  22; 6HR PCP:  0.06;

$$
MIZ004>006-011>014-085-110700-
CENTRAL UPPER MICHIGAN

CITY           SKY/WX    TMP DP  RH WIND       PRES   REMARKS
MANISTIQUE     CLOUDY    15   4  61 W5        30.01R WCI   8
6HR MIN TEMP:  15; 6HR MAX TEMP:  16;

ESCANABA       CLEAR      7   3  84 W5        30.04S WCI  -2
6HR MIN TEMP:   7; 6HR MAX TEMP:  16;

MENOMINEE      CLOUDY    11   7  84 N5        30.06R WCI   3
6HR MIN TEMP:   9; 6HR MAX TEMP:  22; 6HR PCP: TRACE;

SAWYER-GWINN   CLOUDY     8   4  80 W5        29.98R WCI   0
6HR MIN TEMP:   8; 6HR MAX TEMP:  14;

$$
MIZ001>003-009>011-084-110700-
WESTERN UPPER MICHIGAN

CITY           SKY/WX    TMP DP  RH WIND       PRES   REMARKS
IRON MOUNTAIN  CLOUDY    14   9  80 CALM      29.98R
6HR MIN TEMP:  12; 6HR MAX TEMP:  18;

HOUGHTON       CLOUDY    13   5  70 S6        29.95S WCI   4
6HR MIN TEMP:   9; 6HR MAX TEMP:  13;

COPPER HARBOR    N/A     14   7  73 SW6       30.00R WCI   5
6HR MIN TEMP:  14; 6HR MAX TEMP:  17;

IRONWOOD       CLOUDY    12   8  84 S6        29.95F WCI   3
6HR MIN TEMP:  12; 6HR MAX TEMP:  17;

$$

ABBREVIATIONS USED IN REMARKS
   TC - TEMPERATURE IN CELSIUS
  WCI - WIND CHILL INDEX
   HX - HEAT INDEX
  VSB - VISIBILITY





USA.gov is the U.S. government's official web portal to all federal, state and local government web resources and services.